Sheldon, IA

8:34 AM CDT on April 19, 2018 (GMT -0500)
Sheldon Municipal

Weather History for KSHL - August, 2013

Change the Weather History Date:

Sunday, August 25, 2013

  Actual Average Record
Temperature  
Mean Temperature 82 °F -  
Max Temperature 89 °F 80 °F 99 °F (1955)
Min Temperature 75 °F 58 °F 39 °F (2015)
Cooling Degree Days 17    
Growing Degree Days 32 (Base 50)    
Moisture  
Dew Point 74 °F    
Average Humidity 79    
Maximum Humidity 100    
Minimum Humidity 62    
Precipitation  
Precipitation 0.00 in - - ()
Sea Level Pressure  
Sea Level Pressure 30.02 in    
Wind  
Wind Speed 13 mph (South)    
Max Wind Speed 20 mph    
Max Gust Speed 29 mph    
Visibility 10 miles    
Events      
Averages and records for this station are not official NWS values.
T = Trace of Precipitation, MM = Missing Value Source: NWS Daily Summary

Daily Weather History Graph

Daily Weather History Graph

Search for Another Location

Airport or City:

Astronomy

Aug. 25, 2013 Rise Set
Actual Time 6:40 AM CDT 8:09 PM CDT
Civil Twilight 6:10 AM CDT 8:39 PM CDT
Nautical Twilight 5:34 AM CDT 9:15 PM CDT
Astronomical Twilight 4:55 AM CDT 9:53 PM CDT
Moon 10:31 PM CDT (8/25) 11:53 AM CDT (8/25)
Length of Visible Light 14h 29m
Length of Day
13h 29m
Waning Gibbous, 75% of the Moon is Illuminated
Aug 25
Waning Gibbous
Aug 28
Last Quarter
Sep 5
New
Sep 12
First Quarter
Sep 19
Full

Hourly Weather History & Observations

Time (CDT) Temp. Heat Index Dew Point Humidity Pressure Visibility Wind Dir Wind Speed Gust Speed Precip Events Conditions
12:15 AM 77.0 °F - 73.4 °F 89% 30.01 in 10.0 mi South 12.7 mph 20.7 mph N/A   Clear
12:35 AM 77.0 °F - 73.4 °F 89% 30.01 in 10.0 mi South 10.4 mph 18.4 mph N/A   Clear
12:55 AM 77.0 °F - 73.4 °F 89% 30.01 in 10.0 mi South 11.5 mph 17.3 mph N/A   Clear
1:15 AM 77.0 °F - 73.4 °F 89% 30.01 in 10.0 mi South 12.7 mph - N/A   Clear
1:35 AM 77.0 °F - 73.4 °F 89% 30.02 in 10.0 mi South 11.5 mph 17.3 mph N/A   Clear
1:55 AM 77.0 °F - 73.4 °F 89% 30.02 in 10.0 mi South 12.7 mph 19.6 mph N/A   Clear
2:15 AM 77.0 °F - 71.6 °F 83% 30.02 in 10.0 mi South 11.5 mph 18.4 mph N/A   Clear
2:35 AM 77.0 °F - 71.6 °F 83% 30.02 in 10.0 mi South 13.8 mph 19.6 mph N/A   Clear
2:55 AM 77.0 °F - 71.6 °F 83% 30.03 in 10.0 mi South 12.7 mph 18.4 mph N/A   Clear
3:15 AM 77.0 °F - 71.6 °F 83% 30.03 in 10.0 mi South 12.7 mph 20.7 mph N/A   Clear
3:35 AM 77.0 °F - 71.6 °F 83% 30.03 in 10.0 mi South 12.7 mph 19.6 mph N/A   Clear
3:55 AM 77.0 °F - 71.6 °F 83% 30.04 in 10.0 mi South 13.8 mph - N/A   Clear
4:15 AM 77.0 °F - 71.6 °F 83% 30.04 in 10.0 mi South 15.0 mph 24.2 mph N/A   Clear
4:35 AM 77.0 °F - 71.6 °F 83% 30.04 in 10.0 mi South 13.8 mph 21.9 mph N/A   Clear
4:55 AM 75.2 °F - 71.6 °F 89% 30.04 in 10.0 mi South 13.8 mph 21.9 mph N/A   Clear
5:15 AM 75.2 °F - 71.6 °F 89% 30.04 in 10.0 mi South 12.7 mph 23.0 mph N/A   Clear
5:35 AM 75.2 °F - 71.6 °F 89% 30.04 in 10.0 mi South 15.0 mph 21.9 mph N/A   Clear
5:55 AM 75.2 °F - 71.6 °F 89% 30.04 in 10.0 mi South 11.5 mph 17.3 mph N/A   Clear
6:15 AM 75.2 °F - 71.6 °F 89% 30.04 in 10.0 mi South 13.8 mph - N/A   Clear
6:35 AM 75.2 °F - 71.6 °F 89% 30.05 in 10.0 mi South 12.7 mph 23.0 mph N/A   Clear
6:55 AM 75.2 °F - 71.6 °F 89% 30.05 in 10.0 mi South 9.2 mph 17.3 mph N/A   Clear
7:15 AM 75.2 °F - 71.6 °F 89% 30.05 in 10.0 mi South 12.7 mph 18.4 mph N/A   Clear
7:35 AM 75.2 °F - 71.6 °F 89% 30.05 in 10.0 mi South 15.0 mph 24.2 mph N/A   Clear
7:55 AM 75.2 °F - 71.6 °F 89% 30.05 in 10.0 mi South 15.0 mph 23.0 mph N/A   Clear
8:15 AM 77.0 °F - 71.6 °F 83% 30.05 in 10.0 mi South 15.0 mph 25.3 mph N/A   Clear
8:35 AM 77.0 °F - 71.6 °F 83% 30.05 in 10.0 mi South 13.8 mph 24.2 mph N/A   Clear
8:55 AM 78.8 °F - 71.6 °F 78% 30.05 in 10.0 mi South 15.0 mph 24.2 mph N/A   Clear
9:15 AM 78.8 °F - 71.6 °F 78% 30.04 in 10.0 mi South 15.0 mph 28.8 mph N/A   Clear
9:35 AM 80.6 °F 85.4 °F 73.4 °F 79% 30.04 in 10.0 mi South 17.3 mph 25.3 mph N/A   Clear
9:55 AM 80.6 °F 85.4 °F 73.4 °F 79% 30.03 in 9.0 mi South 17.3 mph 24.2 mph N/A   Clear
10:15 AM 80.6 °F 85.4 °F 73.4 °F 79% 30.04 in 10.0 mi South 18.4 mph 26.5 mph N/A   Clear
10:35 AM 82.4 °F 88.2 °F 73.4 °F 74% 30.04 in 10.0 mi SSW 15.0 mph 23.0 mph N/A   Clear
10:55 AM 82.4 °F 88.2 °F 73.4 °F 74% 30.04 in 10.0 mi South 13.8 mph 25.3 mph N/A   Clear
11:15 AM 82.4 °F 88.2 °F 73.4 °F 74% 30.04 in 10.0 mi South 17.3 mph 24.2 mph N/A   Clear
11:35 AM 84.2 °F 90.9 °F 73.4 °F 70% 30.03 in 10.0 mi South 16.1 mph 24.2 mph N/A   Clear
11:55 AM 84.2 °F 90.9 °F 73.4 °F 70% 30.03 in 10.0 mi SSW 19.6 mph 25.3 mph N/A   Clear
12:15 PM 84.2 °F 90.9 °F 73.4 °F 70% 30.03 in 10.0 mi SSW 13.8 mph 25.3 mph N/A   Clear
12:35 PM 86.0 °F 93.4 °F 73.4 °F 66% 30.03 in 10.0 mi SSW 12.7 mph 23.0 mph N/A   Clear
12:55 PM 86.0 °F 93.4 °F 73.4 °F 66% 30.02 in 10.0 mi SSW 18.4 mph 24.2 mph N/A   Clear
1:15 PM 86.0 °F 93.4 °F 73.4 °F 66% 30.01 in 10.0 mi South 19.6 mph 27.6 mph N/A   Clear
1:35 PM 87.8 °F 95.6 °F 73.4 °F 62% 30.01 in 10.0 mi South 19.6 mph 27.6 mph N/A   Clear
1:55 PM 87.8 °F 95.6 °F 73.4 °F 62% 30.01 in 10.0 mi South 18.4 mph 28.8 mph N/A   Clear
2:15 PM 87.8 °F 97.6 °F 75.2 °F 66% 30.01 in 10.0 mi South 16.1 mph 23.0 mph N/A   Clear
2:35 PM 87.8 °F 97.6 °F 75.2 °F 66% 30.01 in 10.0 mi South 18.4 mph 27.6 mph N/A   Clear
2:55 PM 87.8 °F 97.6 °F 75.2 °F 66% 30.01 in 10.0 mi SSW 10.4 mph 23.0 mph N/A   Clear
3:15 PM 87.8 °F 97.6 °F 75.2 °F 66% 30.01 in 10.0 mi South 16.1 mph 23.0 mph N/A   Clear
3:35 PM 87.8 °F 97.6 °F 75.2 °F 66% 30.01 in 10.0 mi South 16.1 mph 23.0 mph N/A   Clear
3:55 PM 87.8 °F 97.6 °F 75.2 °F 66% 30.01 in 10.0 mi South 11.5 mph 24.2 mph N/A   Clear
4:15 PM 89.6 °F 99.8 °F 75.2 °F 62% 30.00 in 10.0 mi South 17.3 mph 23.0 mph N/A   Clear
4:35 PM 89.6 °F 99.8 °F 75.2 °F 62% 30.00 in 10.0 mi South 15.0 mph 24.2 mph N/A   Clear
4:55 PM 89.6 °F 99.8 °F 75.2 °F 62% 30.00 in 10.0 mi SSW 16.1 mph 24.2 mph N/A   Clear
5:15 PM 89.6 °F 102.2 °F 77.0 °F 66% 30.00 in 10.0 mi SSW 13.8 mph 21.9 mph N/A   Clear
5:35 PM 87.8 °F 99.7 °F 77.0 °F 70% 30.00 in 10.0 mi South 12.7 mph 20.7 mph N/A   Clear
5:55 PM 87.8 °F 99.7 °F 77.0 °F 70% 30.00 in 10.0 mi South 13.8 mph 20.7 mph N/A   Clear
6:15 PM 87.8 °F 99.7 °F 77.0 °F 70% 30.00 in 10.0 mi South 10.4 mph 19.6 mph N/A   Clear
6:35 PM 87.8 °F 99.7 °F 77.0 °F 70% 30.00 in 10.0 mi South 10.4 mph 20.7 mph N/A   Clear
6:55 PM 86.0 °F 96.9 °F 77.0 °F 74% 30.00 in 10.0 mi South 10.4 mph 18.4 mph N/A   Clear
7:15 PM 86.0 °F 96.9 °F 77.0 °F 74% 29.99 in 10.0 mi South 10.4 mph - N/A   Clear
7:35 PM 84.2 °F 94.1 °F 77.0 °F 79% 29.99 in 10.0 mi South 10.4 mph - N/A   Clear
7:55 PM 84.2 °F 94.1 °F 77.0 °F 79% 29.99 in 10.0 mi South 11.5 mph 17.3 mph N/A   Clear
8:15 PM 82.4 °F 89.5 °F 75.2 °F 79% 30.00 in 10.0 mi South 11.5 mph 18.4 mph N/A   Clear
8:35 PM 82.4 °F 89.5 °F 75.2 °F 79% 30.00 in 10.0 mi South 10.4 mph - N/A   Clear
8:55 PM 82.4 °F 89.5 °F 75.2 °F 79% 30.01 in 10.0 mi South 9.2 mph - N/A   Clear
9:15 PM 80.6 °F 86.2 °F 75.2 °F 84% 30.01 in 10.0 mi South 9.2 mph - N/A   Clear
9:35 PM 78.8 °F - 75.2 °F 89% 30.02 in 10.0 mi South 8.1 mph 15.0 mph N/A   Clear
9:55 PM 78.8 °F - 75.2 °F 89% 30.03 in 10.0 mi SSE 5.8 mph - N/A   Clear
10:15 PM 77.0 °F - 77.0 °F 100% 30.03 in 10.0 mi South 6.9 mph - N/A   Clear
10:35 PM 78.8 °F - 77.0 °F 94% 30.03 in 10.0 mi South 10.4 mph - N/A   Clear
10:55 PM 78.8 °F - 77.0 °F 94% 30.03 in 10.0 mi South 11.5 mph - N/A   Clear
11:15 PM 78.8 °F - 77.0 °F 94% 30.03 in 10.0 mi South 10.4 mph - N/A   Clear
11:35 PM 78.8 °F - 77.0 °F 94% 30.03 in 10.0 mi South 10.4 mph 19.6 mph N/A   Clear
11:55 PM 78.8 °F - 77.0 °F 94% 30.03 in - South 11.5 mph - N/A   Unknown